This is the latest recevied weather packets stored in our database for station/object DF9PM-13. If no packets are shown the sender has not sent any weather packets the latest 10 day(s).
| Time | Temp. | Humidity | Pressure | Rain* | Wind** | Luminosity | Snow |
|---|---|---|---|---|---|---|---|
| 1777306697 | 21.67° C | 22% | 1019.3 hPa | - | - | - | - |
| 1777305797 | 21.11° C | 20% | 1019.3 hPa | - | - | - | - |
| 1777304897 | 22.22° C | 20% | 1019.4 hPa | - | - | - | - |
| 1777304296 | 21.67° C | 20% | 1019.5 hPa | - | - | - | - |
| 1777303996 | 21.67° C | 21% | 1019.5 hPa | - | - | - | - |
| 1777303396 | 22.22° C | 20% | 1019.5 hPa | - | - | - | - |
| 1777302796 | 21.11° C | 21% | 1019.6 hPa | - | - | - | - |
| 1777302496 | 21.67° C | 23% | 1019.6 hPa | - | - | - | - |
| 1777300695 | 23.33° C | 23% | 1019.8 hPa | - | - | - | - |
| 1777300395 | 22.22° C | 24% | 1019.9 hPa | - | - | - | - |
| 1777300095 | 22.22° C | 24% | 1019.9 hPa | - | - | - | - |
| 1777299795 | 22.22° C | 24% | 1020 hPa | - | - | - | - |
| 1777299496 | 22.78° C | 23% | 1020 hPa | - | - | - | - |
| 1777299195 | 22.22° C | 24% | 1020.1 hPa | - | - | - | - |
| 1777297395 | 23.33° C | 25% | 1020.6 hPa | - | - | - | - |
| 1777296495 | 22.78° C | 25% | 1020.7 hPa | - | - | - | - |
| 1777295894 | 21.67° C | 27% | 1020.8 hPa | - | - | - | - |
| 1777295594 | 22.22° C | 26% | 1020.9 hPa | - | - | - | - |
| 1777295294 | 22.78° C | 27% | 1021 hPa | - | - | - | - |
| 1777294094 | 21.67° C | 29% | 1021.1 hPa | - | - | - | - |
| 1777293194 | 22.22° C | 26% | 1021.3 hPa | - | - | - | - |
| 1777292893 | 22.78° C | 27% | 1021.3 hPa | - | - | - | - |
| 1777292593 | 22.78° C | 27% | 1021.2 hPa | - | - | - | - |
| 1777292293 | 22.22° C | 27% | 1021.3 hPa | - | - | - | - |
| 1777291993 | 22.22° C | 27% | 1021.4 hPa | - | - | - | - |
* Rain since midnight (hover to see other rain measurements)
** Current wind speed in m/s (hover to see current wind gust speed)